This is the latest recevied weather packets stored in our database for station/object N9WHM. If no packets are shown the sender has not sent any weather packets the latest 10 day(s).
| Time | Temp. | Humidity | Pressure | Rain* | Wind** | Luminosity | Snow |
|---|---|---|---|---|---|---|---|
| 1777536276 | 9.44° C | 77% | 1016.3 hPa | 0 mm | - | 0 W/m² | - |
| 1777535972 | 8.89° C | 77% | 1016.4 hPa | 0 mm | - | 0 W/m² | - |
| 1777535668 | 8.89° C | 77% | 1016.6 hPa | 0 mm | - | 0 W/m² | - |
| 1777535365 | 8.89° C | 77% | 1016.4 hPa | 0 mm | - | 0 W/m² | - |
| 1777535063 | 8.89° C | 77% | 1016.8 hPa | 0 mm | - | 0 W/m² | - |
| 1777534760 | 8.89° C | 75% | 1016.7 hPa | 0 mm | - | 0 W/m² | - |
| 1777534456 | 9.44° C | 75% | 1016.9 hPa | 0 mm | - | 0 W/m² | - |
| 1777534154 | 9.44° C | 75% | 1016.9 hPa | 0 mm | - | 0 W/m² | - |
| 1777533851 | 9.44° C | 73% | 1016.6 hPa | 0 mm | - | 0 W/m² | - |
| 1777533548 | 9.44° C | 73% | 1016.9 hPa | 0 mm | - | 0 W/m² | - |
| 1777533244 | 10° C | 71% | 1016.9 hPa | 0 mm | - | 0 W/m² | - |
| 1777532940 | 10° C | 70% | 1016.9 hPa | 0 mm | - | 0 W/m² | - |
| 1777532638 | 10° C | 69% | 1017.1 hPa | 0 mm | - | 0 W/m² | - |
| 1777532334 | 10° C | 70% | 1017 hPa | 0 mm | - | 0 W/m² | - |
| 1777532030 | 9.44° C | 71% | 1017.1 hPa | 0 mm | - | 0 W/m² | - |
| 1777531721 | 10° C | 70% | 1016.8 hPa | 0 mm | - | 0 W/m² | - |
| 1777531418 | 9.44° C | 71% | 1017.2 hPa | 0 mm | - | 0 W/m² | - |
| 1777531116 | 9.44° C | 74% | 1017.3 hPa | 0 mm | - | 0 W/m² | - |
| 1777530813 | 9.44° C | 76% | 1017.3 hPa | 0 mm | - | 0 W/m² | - |
| 1777530511 | 9.44° C | 75% | 1017.3 hPa | 0 mm | - | 0 W/m² | - |
| 1777530207 | 9.44° C | 76% | 1017.5 hPa | 0 mm | - | 0 W/m² | - |
| 1777529904 | 9.44° C | 76% | 1018.1 hPa | 0 mm | - | 0 W/m² | - |
| 1777529600 | 9.44° C | 76% | 1017.9 hPa | 0 mm | - | 0 W/m² | - |
| 1777529298 | 9.44° C | 77% | 1017.6 hPa | 0 mm | - | 0 W/m² | - |
| 1777528994 | 9.44° C | 76% | 1017.4 hPa | 0 mm | - | 0 W/m² | - |
* Rain latest hour (hover to see other rain measurements)
** Current wind speed in m/s (hover to see current wind gust speed)